sat.trackr.live / text

‹ back to catalog

STARLINK-37406

NORAD 69199 · 2026-114T

PAYLOAD ACTIVE UNKNOWN

§ Identity

Operator
Country
US
Launch date
2026-05-25
Launch site
AFETR
Launch vehicle
Mass (kg)
RCS (m²)

Purposes: comms

External: N2YO · Heavens-Above · Gunter

§ Orbital elements

Epoch: 2026-09-19T07:20:51.904320Z

Period
93.85 min
Inclination
53.1572°
Eccentricity
0.0001131
Mean motion
15.34401027 rev/d
Perigee alt
461.9 km
Apogee alt
463.5 km
Semi-major
6,840.8 km
B*
3.7175e-4
RAAN
119.2578°
Arg perigee
91.5931°
Mean anomaly
268.5201°
Rev number
1,926

§ Raw data

STARLINK-374061 69199U 26114T   26262.30615630  .00012205  00000+0  37175-3 0  99952 69199  53.1572 119.2578 0001131  91.5931 268.5201 15.34401027 19265

JSON: /api/v1/satellites/69199 · /tle

For live sub-satellite position, see the globe view (requires WebGL).

§ Visibility from observer

Set your observer location to see the next 7 days of passes ≥ 10°. The values pass through the URL so the page stays shareable.

No JS? Fill the form by hand. The geolocation button needs JavaScript.